timestamp,wind_dir_avg,wind_spd_avg,wind_spd_max_dir,wind_spd_gust,battery_voltage,lat,long
2022-12-27 00:04:01+00:00,268.0,7.18,270.0,9.48,12.41,47.59359,-54.27349
2022-12-27 00:14:00+00:00,259.0,8.25,256.0,10.54,12.33,47.59359,-54.27349
2022-12-27 00:24:00+00:00,273.0,8.01,265.0,9.24,12.33,47.59359,-54.27349
2022-12-27 00:34:00+00:00,250.0,9.84,248.0,11.21,12.33,47.59359,-54.27349
2022-12-27 00:44:00+00:00,297.0,7.11,290.0,10.46,12.33,47.59359,-54.27349
2022-12-27 00:54:00+00:00,298.0,7.1,292.0,9.25,12.33,47.59359,-54.27349
2022-12-27 01:04:00+00:00,274.0,5.61,269.0,8.55,12.33,47.59359,-54.27349
2022-12-27 01:14:00+00:00,279.0,4.35,275.0,7.38,12.33,47.59359,-54.27349
2022-12-27 01:24:00+00:00,278.0,6.72,276.0,8.64,12.33,47.59359,-54.27349
2022-12-27 01:34:00+00:00,266.0,4.21,260.0,4.67,12.33,47.59359,-54.27349
2022-12-27 01:44:00+00:00,267.0,8.08,269.0,9.58,12.33,47.59359,-54.27349
2022-12-27 01:54:00+00:00,254.0,8.66,255.0,10.28,12.33,47.59359,-54.27349
2022-12-27 02:04:00+00:00,264.0,8.1,265.0,10.25,12.33,47.59359,-54.27349
2022-12-27 02:14:00+00:00,265.0,5.85,262.0,9.74,12.33,47.59359,-54.27349
2022-12-27 02:24:00+00:00,264.0,5.82,259.0,9.72,12.33,47.59359,-54.27349
2022-12-27 02:34:00+00:00,251.0,6.43,255.0,10.91,12.33,47.59359,-54.27349
2022-12-27 02:44:00+00:00,246.0,6.23,257.0,9.67,12.33,47.59359,-54.27349
2022-12-27 02:54:00+00:00,257.0,6.47,264.0,9.63,12.33,47.59359,-54.27349
2022-12-27 03:04:00+00:00,245.0,4.92,248.0,7.28,12.33,47.59359,-54.27349
2022-12-27 03:14:01+00:00,255.0,3.81,265.0,4.43,12.33,47.59359,-54.27349
2022-12-27 03:24:01+00:00,247.0,4.0,243.0,5.09,12.33,47.59359,-54.27349
2022-12-27 03:34:01+00:00,239.0,5.12,253.0,8.2,12.33,47.59359,-54.27349
2022-12-27 03:44:01+00:00,242.0,5.97,250.0,9.61,12.33,47.59359,-54.27349
2022-12-27 03:54:01+00:00,248.0,6.45,250.0,9.6,12.33,47.59359,-54.27349
2022-12-27 04:04:01+00:00,260.0,8.53,256.0,10.19,12.33,47.59359,-54.27349
2022-12-27 04:14:00+00:00,270.0,7.41,266.0,10.16,12.33,47.59359,-54.27349
2022-12-27 04:24:00+00:00,309.0,4.85,311.0,5.72,12.33,47.59359,-54.27349
2022-12-27 04:34:00+00:00,301.0,5.16,307.0,5.82,12.33,47.59359,-54.27349
2022-12-27 04:44:00+00:00,288.0,4.17,283.0,5.9,12.33,47.59359,-54.27349
2022-12-27 04:54:00+00:00,289.0,3.4,303.0,4.06,12.33,47.59359,-54.27349
2022-12-27 05:04:00+00:00,306.0,4.29,312.0,4.86,12.33,47.59359,-54.27349
2022-12-27 05:14:00+00:00,301.0,6.67,288.0,8.6,12.25,47.59359,-54.27349
2022-12-27 05:24:00+00:00,289.0,5.93,281.0,8.92,12.25,47.59359,-54.27349
2022-12-27 05:34:00+00:00,309.0,6.09,310.0,7.57,12.25,47.59359,-54.27349
2022-12-27 05:44:00+00:00,281.0,7.21,283.0,8.87,12.25,47.59359,-54.27349
2022-12-27 05:54:00+00:00,284.0,7.26,280.0,8.76,12.25,47.59359,-54.27349
2022-12-27 06:04:00+00:00,277.0,9.94,280.0,11.48,12.25,47.59359,-54.27349
2022-12-27 06:14:00+00:00,274.0,6.42,270.0,8.31,12.25,47.59359,-54.27349
2022-12-27 06:24:00+00:00,267.0,8.01,261.0,9.93,12.25,47.59359,-54.27349
2022-12-27 06:34:00+00:00,272.0,9.72,275.0,10.78,12.25,47.59359,-54.27349
2022-12-27 06:44:00+00:00,282.0,8.38,282.0,10.98,12.25,47.59359,-54.27349
2022-12-27 06:54:00+00:00,284.0,8.01,287.0,9.57,12.25,47.59359,-54.27349
2022-12-27 07:04:00+00:00,282.0,6.36,284.0,7.69,12.25,47.59359,-54.27349
2022-12-27 07:14:00+00:00,269.0,6.59,268.0,8.86,12.17,47.59359,-54.27349
2022-12-27 07:24:00+00:00,278.0,7.86,277.0,9.45,12.17,47.59359,-54.27349
2022-12-27 07:34:00+00:00,269.0,7.03,270.0,8.67,12.17,47.59359,-54.27349
2022-12-27 07:44:00+00:00,255.0,5.75,259.0,7.63,12.17,47.59359,-54.27349
2022-12-27 07:54:00+00:00,278.0,5.37,268.0,6.75,12.17,47.59359,-54.27349
2022-12-27 08:04:00+00:00,274.0,5.41,272.0,6.65,12.17,47.59359,-54.27349
2022-12-27 08:14:01+00:00,274.0,4.88,277.0,6.22,12.17,47.59359,-54.27349
2022-12-27 08:24:01+00:00,266.0,5.86,274.0,7.73,12.17,47.59359,-54.27349
2022-12-27 08:34:01+00:00,257.0,3.72,258.0,4.47,12.17,47.59359,-54.27349
2022-12-27 08:44:01+00:00,246.0,3.64,243.0,4.27,12.17,47.59359,-54.27349
2022-12-27 08:54:01+00:00,239.0,3.79,239.0,4.2,12.17,47.59359,-54.27349
2022-12-27 09:04:01+00:00,231.0,4.09,231.0,4.81,12.17,47.59359,-54.27349
2022-12-27 09:14:00+00:00,231.0,4.72,230.0,5.28,12.17,47.59359,-54.27349
2022-12-27 09:24:00+00:00,246.0,4.62,235.0,5.21,12.17,47.59359,-54.27349
2022-12-27 09:34:00+00:00,246.0,5.48,253.0,9.35,12.17,47.59359,-54.27349
2022-12-27 09:44:00+00:00,228.0,4.94,228.0,5.84,12.17,47.59359,-54.27349
2022-12-27 09:54:00+00:00,231.0,4.97,244.0,6.83,12.17,47.59359,-54.27349
2022-12-27 10:04:00+00:00,224.0,5.07,218.0,5.68,12.17,47.59359,-54.27349
2022-12-27 10:14:01+00:00,240.0,4.41,239.0,4.99,12.17,47.59359,-54.27349
2022-12-27 10:24:01+00:00,230.0,4.57,231.0,5.03,12.17,47.59359,-54.27349
2022-12-27 10:34:01+00:00,238.0,4.39,234.0,5.25,12.17,47.59359,-54.27349
2022-12-27 10:44:01+00:00,237.0,5.75,244.0,8.06,12.17,47.59359,-54.27349
2022-12-27 10:54:01+00:00,227.0,5.26,233.0,6.79,12.17,47.59359,-54.27349
2022-12-27 11:04:01+00:00,215.0,5.88,214.0,6.55,12.17,47.59359,-54.27349
2022-12-27 11:14:00+00:00,234.0,7.83,242.0,10.45,12.17,47.59359,-54.27349
2022-12-27 11:24:00+00:00,233.0,6.29,243.0,9.92,12.17,47.59359,-54.27349
2022-12-27 11:34:00+00:00,237.0,7.09,244.0,9.92,12.17,47.59359,-54.27349
2022-12-27 11:44:00+00:00,242.0,9.67,240.0,11.81,12.17,47.59359,-54.27349
2022-12-27 11:54:00+00:00,243.0,10.58,240.0,11.85,12.17,47.59359,-54.27349
2022-12-27 12:04:00+00:00,238.0,10.04,245.0,11.96,12.17,47.59359,-54.27349
2022-12-27 12:14:00+00:00,239.0,9.73,240.0,11.83,12.25,47.59359,-54.27349
2022-12-27 12:24:00+00:00,242.0,9.28,241.0,10.63,12.25,47.59359,-54.27349
2022-12-27 12:34:00+00:00,240.0,10.21,245.0,11.56,12.25,47.59359,-54.27349
2022-12-27 12:44:00+00:00,241.0,10.63,239.0,11.93,12.25,47.59359,-54.27349
2022-12-27 12:54:00+00:00,238.0,9.84,243.0,11.6,12.25,47.59359,-54.27349
2022-12-27 13:04:00+00:00,241.0,9.71,234.0,12.31,12.25,47.59359,-54.27349
2022-12-27 13:14:01+00:00,242.0,11.0,240.0,11.92,13.05,47.59359,-54.27349
2022-12-27 13:24:01+00:00,238.0,11.14,237.0,12.33,13.05,47.59359,-54.27349
2022-12-27 13:34:01+00:00,235.0,10.57,230.0,12.93,13.05,47.59359,-54.27349
2022-12-27 13:44:01+00:00,238.0,10.67,242.0,13.83,13.05,47.59359,-54.27349
2022-12-27 13:54:01+00:00,241.0,10.64,242.0,11.74,13.05,47.59359,-54.27349
2022-12-27 14:04:01+00:00,236.0,10.69,230.0,12.75,13.05,47.59359,-54.27349
2022-12-27 15:14:00+00:00,236.0,10.05,237.0,12.18,12.73,47.59359,-54.27349
2022-12-27 15:24:00+00:00,238.0,10.22,241.0,11.7,12.73,47.59359,-54.27349
2022-12-27 15:34:00+00:00,232.0,11.24,233.0,13.56,12.73,47.59359,-54.27349
2022-12-27 15:44:00+00:00,235.0,10.45,235.0,12.21,12.73,47.59359,-54.27349
2022-12-27 15:54:00+00:00,235.0,9.93,238.0,11.82,12.73,47.59359,-54.27349
2022-12-27 16:04:00+00:00,247.0,11.68,252.0,14.19,12.73,47.59359,-54.27349
2022-12-27 16:14:00+00:00,238.0,9.85,238.0,11.01,12.73,47.59359,-54.27349
2022-12-27 16:24:00+00:00,242.0,9.16,244.0,12.09,12.73,47.59359,-54.27349
2022-12-27 16:34:00+00:00,237.0,9.73,238.0,11.66,12.73,47.59359,-54.27349
2022-12-27 16:44:00+00:00,243.0,9.41,243.0,10.33,12.73,47.59359,-54.27349
2022-12-27 16:54:00+00:00,247.0,9.03,247.0,10.14,12.73,47.59359,-54.27349
2022-12-27 17:04:00+00:00,244.0,9.49,251.0,11.47,12.73,47.59359,-54.27349
2022-12-27 17:14:00+00:00,240.0,9.43,232.0,10.97,12.97,47.59359,-54.27349
2022-12-27 17:24:00+00:00,246.0,9.51,249.0,11.58,12.97,47.59359,-54.27349
2022-12-27 17:34:00+00:00,239.0,9.68,235.0,11.14,12.97,47.59359,-54.27349
2022-12-27 17:44:00+00:00,247.0,9.52,248.0,11.65,12.97,47.59359,-54.27349
2022-12-27 17:54:00+00:00,253.0,8.85,251.0,9.97,12.97,47.59359,-54.27349
2022-12-27 18:04:00+00:00,249.0,9.84,250.0,11.71,12.97,47.59359,-54.27349
2022-12-27 18:14:00+00:00,248.0,9.01,254.0,10.78,12.73,47.59359,-54.27349
2022-12-27 18:24:00+00:00,246.0,10.38,244.0,12.31,12.73,47.59359,-54.27349
2022-12-27 18:34:00+00:00,239.0,9.31,246.0,11.64,12.73,47.59359,-54.27349
2022-12-27 18:44:00+00:00,238.0,10.95,240.0,13.3,12.73,47.59359,-54.27349
2022-12-27 18:54:00+00:00,245.0,9.27,255.0,11.79,12.73,47.59359,-54.27349
2022-12-27 19:04:00+00:00,249.0,10.05,250.0,12.32,12.73,47.59359,-54.27349
2022-12-27 19:14:01+00:00,240.0,9.76,245.0,12.75,12.57,47.59359,-54.27349
2022-12-27 19:24:01+00:00,246.0,11.01,248.0,13.02,12.57,47.59359,-54.27349
2022-12-27 19:34:01+00:00,242.0,9.39,250.0,11.37,12.57,47.59359,-54.27349
2022-12-27 19:44:01+00:00,244.0,8.89,238.0,10.79,12.57,47.59359,-54.27349
2022-12-27 19:54:01+00:00,234.0,10.18,236.0,13.05,12.57,47.59359,-54.27349
2022-12-27 20:04:01+00:00,236.0,10.67,239.0,11.95,12.57,47.59359,-54.27349
2022-12-27 20:14:00+00:00,232.0,11.04,230.0,13.14,12.41,47.59359,-54.27349
2022-12-27 20:24:00+00:00,235.0,10.42,228.0,12.76,12.41,47.59359,-54.27349
2022-12-27 20:34:00+00:00,235.0,11.12,226.0,12.29,12.41,47.59359,-54.27349
2022-12-27 20:44:00+00:00,243.0,9.81,242.0,11.52,12.41,47.59359,-54.27349
2022-12-27 20:54:00+00:00,237.0,11.2,240.0,11.98,12.41,47.59359,-54.27349
2022-12-27 21:04:00+00:00,237.0,10.36,240.0,11.87,12.41,47.59359,-54.27349
2022-12-27 21:14:00+00:00,227.0,11.37,226.0,13.43,12.33,47.59359,-54.27349
2022-12-27 21:24:00+00:00,239.0,10.5,234.0,11.91,12.33,47.59359,-54.27349
2022-12-27 21:34:00+00:00,236.0,10.26,238.0,12.24,12.33,47.59359,-54.27349
2022-12-27 21:44:00+00:00,237.0,10.97,236.0,12.37,12.33,47.59359,-54.27349
2022-12-27 21:54:00+00:00,235.0,10.22,236.0,12.38,12.33,47.59359,-54.27349
2022-12-27 22:04:00+00:00,235.0,11.1,230.0,12.62,12.33,47.59359,-54.27349
2022-12-27 22:14:00+00:00,242.0,10.77,241.0,12.06,12.25,47.59359,-54.27349
2022-12-27 22:24:00+00:00,240.0,11.15,240.0,12.2,12.25,47.59359,-54.27349
2022-12-27 22:34:00+00:00,236.0,11.28,236.0,12.57,12.25,47.59359,-54.27349
2022-12-27 22:44:00+00:00,234.0,11.61,229.0,12.82,12.25,47.59359,-54.27349
2022-12-27 22:54:00+00:00,234.0,11.28,234.0,12.45,12.25,47.59359,-54.27349
2022-12-27 23:04:00+00:00,239.0,11.05,241.0,12.03,12.25,47.59359,-54.27349
2022-12-27 23:14:01+00:00,242.0,10.88,241.0,11.73,12.25,47.59359,-54.27349
2022-12-27 23:24:01+00:00,233.0,11.53,232.0,12.66,12.25,47.59359,-54.27349
2022-12-27 23:34:01+00:00,237.0,8.8,242.0,10.85,12.25,47.59359,-54.27349
2022-12-27 23:44:01+00:00,230.0,10.08,234.0,11.79,12.25,47.59359,-54.27349
2022-12-27 23:54:01+00:00,222.0,10.12,231.0,11.94,12.25,47.59359,-54.27349
